Starlink 30184

operational
NORAD ID: 57310 Int'l Des: 2023-096 Owner: SPXS Country: US Constellation: starlink
LEOCIRCULAR

Starlink 30184について

説明を読み込み中...

リアルタイム位置

3D地球を読み込み中...

次回通過

高度履歴

Altitude vs Time

uPlot chart will show altitude changes over time

軌道要素

1 57310U 23096W 25354.14409524 -.00000559 00000-0 -26355-4 0 9990
2 57310 43.0036 269.3600 0000661 309.4330 50.6454 15.02532878135054
Epoch: Dec 20, 2025 • Age: 11 hours

現在のステータス

高度 572.0 km
速度 7.58 km/s
衛星直下点 -42.85°S, 133.9°W
打ち上げ日 Jul 10, 2023
運用期間 2.4 years
タイプ internet

技術仕様

分類 Payload
質量 730.00 kg
乾燥質量 700.00 kg
総質量 730.00 kg
長さ 0.30 m
直径 4.10 m
スパン 29.00 m
形状 Box + pan
製造者 SPXS
バスタイプ Starlink V2M
フェーズステータス In Orbit
所有者/国 SPXS/US

大規模コンステレーション

Loading constellations...